• In France
  • List of Countries
  • For 7 days
  • Water Temperature
  • Satellite Maps
  • Weather Map
  • Weather Widgets
  • user-avatar
    Login

    Hourly Weather Monteria

    Today, 21 February, Wednesday

    Time Temperature Precipitation Wind Pressure Humidity
    00:00 +27°C° 0 mm 2 mps 756 mmHg 79%
    01:00 +26°C° 0 mm 2 mps 756 mmHg 82%
    02:00 +26°C° 0 mm 2 mps 756 mmHg 83%
    03:00 +26°C° 0 mm 2 mps 756 mmHg 85%
    04:00 +25°C° 0 mm 2 mps 755 mmHg 87%
    05:00 +25°C° 0 mm 2 mps 756 mmHg 87%
    06:00 +25°C° 0 mm 2 mps 756 mmHg 87%
    07:00 +25°C° 0 mm 1 mps 756 mmHg 87%
    08:00 +28°C° 0 mm 2 mps 757 mmHg 74%
    09:00 +30°C° 0 mm 2 mps 757 mmHg 62%
    10:00 +34°C° 0 mm 2 mps 757 mmHg 49%
    11:00 +35°C° 0 mm 2 mps 757 mmHg 44%
    12:00 +36°C° 0 mm 3 mps 756 mmHg 39%
    13:00 +38°C° 0 mm 3 mps 755 mmHg 34%
    14:00 +37°C° 0 mm 3 mps 755 mmHg 36%
    15:00 +37°C° 0 mm 4 mps 754 mmHg 37%
    16:00 +37°C° 0 mm 4 mps 753 mmHg 38%
    17:00 +35°C° 0 mm 4 mps 754 mmHg 48%
    18:00 +32°C° 0 mm 5 mps 754 mmHg 58%
    19:00 +29°C° 0 mm 5 mps 754 mmHg 68%
    20:00 +29°C° 0 mm 4 mps 755 mmHg 71%
    21:00 +28°C° 0 mm 3 mps 756 mmHg 73%
    22:00 +28°C° 0 mm 3 mps 756 mmHg 75%
    23:00 +28°C° 0 mm 2 mps 756 mmHg 78%

    Tomorrow, 22 February, Thursday

    Time Temperature Precipitation Wind Pressure Humidity
    00:00 +27°C° 0 mm 2 mps 756 mmHg 80%
    01:00 +27°C° 0 mm 2 mps 756 mmHg 82%
    02:00 +27°C° 0.1 mm 2 mps 756 mmHg 83%
    03:00 +26°C° 0.1 mm 2 mps 756 mmHg 85%
    04:00 +26°C° 0.1 mm 2 mps 756 mmHg 86%
    05:00 +26°C° 0 mm 2 mps 756 mmHg 86%
    06:00 +26°C° 0 mm 2 mps 757 mmHg 86%
    07:00 +26°C° 0 mm 2 mps 757 mmHg 85%
    08:00 +28°C° 0 mm 1 mps 757 mmHg 74%
    09:00 +31°C° 0 mm 1 mps 758 mmHg 62%
    10:00 +33°C° 0 mm 1 mps 758 mmHg 51%
    11:00 +35°C° 0 mm 2 mps 757 mmHg 46%
    12:00 +36°C° 0 mm 2 mps 757 mmHg 41%
    13:00 +38°C° 0 mm 2 mps 756 mmHg 36%
    14:00 +38°C° 0 mm 2 mps 755 mmHg 36%
    15:00 +37°C° 0 mm 3 mps 754 mmHg 37%
    16:00 +37°C° 0 mm 3 mps 753 mmHg 37%
    17:00 +35°C° 0 mm 4 mps 754 mmHg 47%
    18:00 +33°C° 0 mm 5 mps 754 mmHg 58%
    19:00 +29°C° 0 mm 5 mps 755 mmHg 68%
    20:00 +29°C° 0 mm 4 mps 755 mmHg 70%
    21:00 +29°C° 0 mm 4 mps 756 mmHg 71%
    22:00 +28°C° 0 mm 3 mps 756 mmHg 72%
    23:00 +28°C° 0.1 mm 3 mps 756 mmHg 73%

    Day after tomorrow, 23 February, Friday

    Time Temperature Precipitation Wind Pressure Humidity
    00:00 +28°C° 0.1 mm 2 mps 756 mmHg 74%
    01:00 +28°C° 0.1 mm 2 mps 756 mmHg 75%
    02:00 +27°C° 0.1 mm 2 mps 756 mmHg 77%
    03:00 +27°C° 0.1 mm 2 mps 756 mmHg 79%
    04:00 +27°C° 0.1 mm 2 mps 755 mmHg 80%
    05:00 +27°C° 0 mm 1 mps 756 mmHg 80%
    06:00 +27°C° 0 mm 1 mps 756 mmHg 80%
    07:00 +27°C° 0 mm 1 mps 757 mmHg 79%
    08:00 +29°C° 0.1 mm 1 mps 757 mmHg 70%
    09:00 +31°C° 0.1 mm 1 mps 758 mmHg 60%
    10:00 +34°C° 0.1 mm 2 mps 758 mmHg 50%
    11:00 +35°C° 0 mm 2 mps 757 mmHg 45%
    12:00 +35°C° 0 mm 1 mps 756 mmHg 40%
    13:00 +37°C° 0 mm 1 mps 755 mmHg 35%
    14:00 +37°C° 0 mm 2 mps 755 mmHg 36%
    15:00 +37°C° 0 mm 3 mps 754 mmHg 37%
    16:00 +37°C° 0 mm 4 mps 753 mmHg 37%
    17:00 +35°C° 0 mm 4 mps 753 mmHg 47%
    18:00 +33°C° 0 mm 5 mps 754 mmHg 57%
    19:00 +29°C° 0 mm 5 mps 754 mmHg 67%
    20:00 +29°C° 0.1 mm 5 mps 755 mmHg 69%
    21:00 +29°C° 0.1 mm 4 mps 755 mmHg 70%
    22:00 +28°C° 0.1 mm 4 mps 756 mmHg 72%
    23:00 +28°C° 0 mm 3 mps 756 mmHg 73%

    24 February, Saturday

    Time Temperature Precipitation Wind Pressure Humidity
    00:00 +28°C° 0 mm 3 mps 755 mmHg 75%
    01:00 +28°C° 0 mm 2 mps 755 mmHg 76%
    02:00 +27°C° 0.3 mm 2 mps 755 mmHg 77%
    03:00 +27°C° 0.3 mm 2 mps 755 mmHg 79%
    04:00 +27°C° 0.3 mm 2 mps 755 mmHg 80%
    05:00 +27°C° 0.2 mm 2 mps 755 mmHg 79%
    06:00 +27°C° 0.2 mm 2 mps 756 mmHg 79%
    07:00 +27°C° 0.2 mm 1 mps 756 mmHg 79%
    08:00 +29°C° 0 mm 2 mps 757 mmHg 69%
    09:00 +30°C° 0 mm 2 mps 757 mmHg 59%
    10:00 +32°C° 0 mm 2 mps 757 mmHg 49%
    11:00 +35°C° 0 mm 2 mps 756 mmHg 45%
    12:00 +36°C° 0 mm 2 mps 755 mmHg 42%
    13:00 +37°C° 0 mm 2 mps 755 mmHg 38%
    14:00 +37°C° 0.1 mm 3 mps 754 mmHg 39%
    15:00 +37°C° 0.1 mm 3 mps 754 mmHg 40%
    16:00 +36°C° 0.1 mm 4 mps 753 mmHg 41%
    17:00 +34°C° 0.1 mm 4 mps 753 mmHg 49%
    18:00 +33°C° 0.1 mm 5 mps 754 mmHg 57%
    19:00 +30°C° 0.1 mm 5 mps 755 mmHg 64%
    20:00 +29°C° 0.2 mm 5 mps 755 mmHg 68%
    21:00 +29°C° 0.2 mm 4 mps 756 mmHg 71%
    22:00 +28°C° 0.2 mm 4 mps 756 mmHg 75%
    23:00 +28°C° 0 mm 3 mps 756 mmHg 77%

    25 February, Sunday

    Time Temperature Precipitation Wind Pressure Humidity
    00:00 +27°C° 0 mm 2 mps 756 mmHg 79%
    01:00 +27°C° 0 mm 2 mps 756 mmHg 81%
    02:00 +27°C° 0.3 mm 2 mps 756 mmHg 82%
    03:00 +27°C° 0.3 mm 2 mps 756 mmHg 83%
    04:00 +26°C° 0.3 mm 2 mps 756 mmHg 85%
    05:00 +26°C° 0.1 mm 2 mps 756 mmHg 85%
    06:00 +26°C° 0.1 mm 2 mps 757 mmHg 85%
    07:00 +26°C° 0.1 mm 2 mps 757 mmHg 85%
    08:00 +28°C° 0 mm 2 mps 757 mmHg 74%
    09:00 +30°C° 0 mm 2 mps 757 mmHg 63%
    10:00 +33°C° 0 mm 3 mps 758 mmHg 52%
    11:00 +34°C° 0 mm 3 mps 757 mmHg 49%
    12:00 +36°C° 0 mm 3 mps 756 mmHg 45%
    13:00 +37°C° 0 mm 3 mps 755 mmHg 41%
    14:00 +36°C° 0 mm 3 mps 755 mmHg 42%
    15:00 +36°C° 0 mm 4 mps 754 mmHg 44%
    16:00 +36°C° 0 mm 4 mps 754 mmHg 45%
    17:00 +34°C° 0 mm 4 mps 754 mmHg 52%
    18:00 +32°C° 0 mm 4 mps 755 mmHg 59%
    19:00 +29°C° 0 mm 4 mps 755 mmHg 66%
    20:00 +29°C° 0 mm 4 mps 756 mmHg 70%
    21:00 +28°C° 0 mm 4 mps 756 mmHg 75%
    22:00 +28°C° 0 mm 3 mps 757 mmHg 79%
    23:00 +27°C° 0.2 mm 3 mps 757 mmHg 81%

    26 February, Monday

    Time Temperature Precipitation Wind Pressure Humidity
    00:00 +27°C° 0.2 mm 2 mps 756 mmHg 83%
    01:00 +27°C° 0.2 mm 2 mps 756 mmHg 85%
    02:00 +26°C° 0.5 mm 2 mps 756 mmHg 86%
    03:00 +26°C° 0.5 mm 2 mps 756 mmHg 87%
    04:00 +26°C° 0.5 mm 2 mps 756 mmHg 88%
    05:00 +26°C° 0 mm 2 mps 757 mmHg 88%
    06:00 +26°C° 0 mm 2 mps 757 mmHg 87%
    07:00 +26°C° 0 mm 2 mps 757 mmHg 87%
    08:00 +28°C° 0 mm 2 mps 758 mmHg 76%
    09:00 +30°C° 0 mm 2 mps 758 mmHg 65%
    10:00 +32°C° 0 mm 2 mps 758 mmHg 54%
    11:00 +34°C° 0 mm 2 mps 757 mmHg 49%
    12:00 +36°C° 0 mm 2 mps 756 mmHg 45%
    13:00 +37°C° 0 mm 2 mps 755 mmHg 41%
    14:00 +37°C° 0 mm 3 mps 755 mmHg 43%
    15:00 +36°C° 0 mm 4 mps 754 mmHg 44%
    16:00 +36°C° 0 mm 4 mps 754 mmHg 45%
    17:00 +34°C° 0 mm 4 mps 754 mmHg 53%
    18:00 +32°C° 0 mm 5 mps 754 mmHg 61%
    19:00 +29°C° 0 mm 5 mps 755 mmHg 68%
    20:00 +29°C° 0 mm 4 mps 755 mmHg 72%
    21:00 +28°C° 0 mm 4 mps 756 mmHg 76%
    22:00 +28°C° 0 mm 4 mps 756 mmHg 80%
    23:00 +28°C° 0.2 mm 3 mps 756 mmHg 82%
    Show more